Location: Caltech
(34.1382°N, 118.1253°W)
Time: 02:15:41
(UTC-07:00)

Hamsat - Visible Passes

Search period start: 06 May 2016 00:00
Search period end: 16 May 2016 00:00
Orbit: 586 x 621 km, 97.6° (Epoch: 04 May)

Date Brightness Start Highest point End Pass type
(mag) Time Alt. Az. Time Alt. Az. Time Alt. Az.
06 May ? 04:22:40 10° ENE 04:23:57 11° E 04:25:16 10° ESE visible
07 May ? 04:33:34 10° NE 04:36:12 16° E 04:38:51 10° SE visible
08 May ? 04:45:04 10° NE 04:48:25 22° E 04:51:46 10° SSE visible
09 May ? 04:56:49 10° NE 05:00:37 31° E 05:04:25 10° SSE visible
10 May ? 05:08:43 10° NNE 05:12:48 43° E 05:16:54 10° S visible
11 May ? 05:20:43 10° NNE 05:24:57 63° E 05:29:13 10° S visible
14 May ? 04:23:36 10° ENE 04:25:20 12° E 04:27:04 10° ESE visible
15 May ? 04:34:43 10° NE 04:37:34 17° E 04:40:24 10° SE visible
